Weather History for St. Augustine, FL

Change the Weather History Date:

Monday, January 20, 2014

  Actual Average Record
Temperature  
Mean Temperature 54 °F -  
Max Temperature 66 °F 62 °F 80 °F (1982)
Min Temperature 42 °F 44 °F 23 °F (1977)
Degree Days  
Heating Degree Days 11    
Growing Degree Days 4 (Base 50)    
Moisture  
Dew Point 42 °F    
Average Humidity 82    
Maximum Humidity 100    
Minimum Humidity 30    
Precipitation  
Precipitation 0.00 in - - ()
Sea Level Pressure  
Sea Level Pressure 30.11 in    
Wind  
Wind Speed 5 mph (WSW)    
Max Wind Speed 10 mph    
Max Gust Speed -    
Visibility 5 miles    
Events Fog , Rain    
Averages and records for this station are not official NWS values.
T = Trace of Precipitation, MM = Missing Value Source: NWS Daily Summary

Daily Weather History Graph

Daily Weather History Graph

Search for Another Location

Airport:

Trip Planner

Search our weather history database for the weather conditions in past years. The results will help you decide how hot, cold, wet, or windy it might be!

Date:

Astronomy

Jan. 20, 2014 Rise Set
Actual Time 7:20 AM EST 5:52 PM EST
Civil Twilight 6:55 AM EST 6:17 PM EST
Nautical Twilight 6:26 AM EST 6:47 PM EST
Astronomical Twilight 5:57 AM EST 7:15 PM EST
Moon 10:02 PM EST (1/20) 9:40 AM EST (1/20)
Length of Visible Light 11h 22m
Length of Day
10h 31m
Waning Gibbous, 83% of the Moon is Illuminated
Jan 20
Waning Gibbous
Jan 24
Last Quarter
Jan 30
New
Feb 6
First Quarter
Feb 14
Full

Hourly Weather History & Observations

Time (EST) Temp. Windchill Dew Point Humidity Pressure Visibility Wind Dir Wind Speed Gust Speed Precip Events Conditions
12:58 AM 48.0 °F - 46.9 °F 96% 30.13 in 10.0 mi WSW 5.8 mph - N/A   Clear
1:58 AM 46.9 °F - 46.0 °F 97% 30.13 in 10.0 mi WSW 5.8 mph - N/A   Clear
2:58 AM 46.0 °F 44.8 °F 45.0 °F 96% 30.12 in 6.0 mi West 3.5 mph - N/A   Clear
3:08 AM 46.4 °F 45.2 °F 44.6 °F 93% 30.12 in 2.5 mi West 3.5 mph - N/A   Partly Cloudy
3:20 AM 46.4 °F 44.3 °F 44.6 °F 93% 30.13 in 3.0 mi West 4.6 mph - N/A   Partly Cloudy
3:32 AM 46.4 °F 45.2 °F 44.6 °F 93% 30.13 in 2.5 mi West 3.5 mph - N/A   Mostly Cloudy
3:39 AM 44.6 °F 43.1 °F 44.6 °F 100% 30.13 in 1.2 mi West 3.5 mph - N/A   Mostly Cloudy
3:42 AM 44.6 °F - 44.6 °F 100% 30.13 in 0.8 mi Calm Calm - N/A   Mostly Cloudy
3:48 AM 44.6 °F 43.1 °F 44.6 °F 100% 30.13 in 0.5 mi WSW 3.5 mph - N/A Fog Fog
3:58 AM 45.0 °F 43.5 °F 44.1 °F 97% 30.14 in 0.5 mi WSW 3.5 mph - 0.00 in Fog , Rain Light Rain
4:09 AM 44.6 °F 43.1 °F 44.6 °F 100% 30.14 in 0.8 mi WSW 3.5 mph - 0.00 in Rain Light Rain
4:14 AM 44.6 °F 42.2 °F 44.6 °F 100% 30.14 in 1.2 mi WSW 4.6 mph - 0.00 in Rain Light Rain
4:29 AM 44.6 °F 43.1 °F 44.6 °F 100% 30.13 in 0.8 mi West 3.5 mph - 0.00 in Rain Light Rain
4:40 AM 44.6 °F 42.2 °F 44.6 °F 100% 30.13 in 1.0 mi WSW 4.6 mph - 0.00 in Rain Light Rain
4:58 AM 44.1 °F 41.5 °F 44.1 °F 100% 30.13 in 1.2 mi West 4.6 mph - 0.00 in   Overcast
5:04 AM 44.6 °F 42.2 °F 42.8 °F 93% 30.13 in 1.0 mi West 4.6 mph - N/A   Overcast
5:14 AM 44.6 °F 42.2 °F 44.6 °F 100% 30.13 in 1.5 mi WSW 4.6 mph - N/A   Overcast
5:23 AM 44.6 °F 42.2 °F 42.8 °F 93% 30.13 in 0.8 mi West 4.6 mph - N/A   Overcast
5:28 AM 44.6 °F 42.2 °F 42.8 °F 93% 30.13 in 0.5 mi West 4.6 mph - N/A Fog Fog
5:33 AM 44.6 °F 43.1 °F 42.8 °F 93% 30.13 in 0.2 mi WSW 3.5 mph - N/A Fog Fog
5:58 AM 44.1 °F 40.8 °F 43.0 °F 96% 30.14 in 0.2 mi West 5.8 mph - 0.00 in Fog , Rain Light Rain
6:04 AM 44.6 °F 42.2 °F 42.8 °F 93% 30.13 in 0.5 mi West 4.6 mph - 0.00 in Fog , Rain Light Rain
6:08 AM 44.6 °F 43.1 °F 42.8 °F 93% 30.14 in 1.0 mi West 3.5 mph - 0.00 in   Overcast
6:15 AM 42.8 °F 41.1 °F 42.8 °F 100% 30.13 in 1.2 mi West 3.5 mph - 0.00 in   Overcast
6:22 AM 42.8 °F 41.1 °F 42.8 °F 100% 30.13 in 3.0 mi West 3.5 mph - 0.00 in   Mostly Cloudy
6:29 AM 42.8 °F 41.1 °F 42.8 °F 100% 30.14 in 7.0 mi West 3.5 mph - 0.00 in   Scattered Clouds
6:58 AM 43.0 °F - 42.1 °F 97% 30.13 in 3.0 mi Calm Calm - 0.00 in   Clear
7:04 AM 42.8 °F 41.1 °F 42.8 °F 100% 30.13 in 2.0 mi WSW 3.5 mph - N/A   Clear
7:50 AM 42.8 °F 41.1 °F 42.8 °F 100% 30.14 in 4.0 mi West 3.5 mph - N/A   Clear
7:58 AM 43.0 °F 40.3 °F 42.1 °F 97% 30.14 in 4.0 mi West 4.6 mph - N/A   Clear
8:58 AM 46.9 °F - 46.0 °F 97% 30.15 in 10.0 mi West 4.6 mph - N/A   Clear
9:58 AM 53.1 °F - 44.1 °F 71% 30.16 in 10.0 mi West 5.8 mph - N/A   Clear
10:58 AM 59.0 °F - 37.9 °F 46% 30.15 in 10.0 mi West 5.8 mph - N/A   Clear
11:58 AM 62.1 °F - 35.1 °F 37% 30.12 in 10.0 mi WSW 8.1 mph - N/A   Clear
12:58 PM 64.9 °F - 35.1 °F 33% 30.08 in 10.0 mi WNW 10.4 mph - N/A   Clear
1:58 PM 64.9 °F - 35.1 °F 33% 30.04 in 10.0 mi West 5.8 mph - N/A   Clear
2:58 PM 66.9 °F - 35.1 °F 31% 30.03 in 10.0 mi West 8.1 mph - N/A   Clear
3:58 PM 66.9 °F - 34.0 °F 30% 30.03 in 10.0 mi WSW 9.2 mph - N/A   Clear
4:58 PM 66.0 °F - 35.1 °F 32% 30.04 in 10.0 mi SW 9.2 mph - N/A   Clear
5:58 PM 61.0 °F - 37.9 °F 42% 30.03 in 10.0 mi SSW 3.5 mph - N/A   Clear
6:58 PM 55.0 °F - 42.1 °F 62% 30.03 in 10.0 mi Calm Calm - N/A   Clear
7:58 PM 53.1 °F - 41.0 °F 64% 30.04 in 10.0 mi SSW 3.5 mph - N/A   Clear
8:58 PM 55.0 °F - 39.9 °F 57% 30.04 in 10.0 mi WSW 5.8 mph - N/A   Clear
9:58 PM 54.0 °F - 41.0 °F 62% 30.04 in 10.0 mi WSW 5.8 mph - N/A   Clear
10:58 PM 53.1 °F - 42.1 °F 66% 30.05 in 10.0 mi WSW 8.1 mph - N/A   Clear
11:58 PM 52.0 °F - 44.1 °F 74% 30.03 in 10.0 mi SW 8.1 mph - N/A   Clear